Home   Weather   Mudgee   Past weeks

Flag for Australia Past Weather in Mudgee, New South Wales, Australia — Yesterday and Last 2 Weeks

Now
93 °F

Hot.


Feels Like: 93 °F
Forecast: 74 / 94 °F
Wind: 9 mph from Northeast

Location: Mudgee Aws

Current Time: Jan 23, 2017 at 5:29:36 pm

Latest Report: Jan 23, 2017 at 4:00 pm


Visibility: N/A

Pressure: 29.80 "Hg

Humidity: 34%

Dew Point: 60 °F

Location of MudgeeLocation

Past Weather in Mudgee — Graph

°F

Mudgee Temperature Yesterday

Maximum temperature yesterday: 88 °F (at 6:00 pm)
Minimum temperature yesterday: 64 °F (at 4:00 am)
Average temperature yesterday: 75 °F

High & Low Weather Summary for the Past Weeks

 TemperatureHumidityPressure
High105 °F (Jan 13, 6:00 pm)100% (Jan 20, 12:00 pm)30.00 "Hg (Jan 20, 12:00 pm)
Low60 °F (Jan 21, 6:00 am)14% (Jan 14, 7:00 pm)29.41 "Hg (Jan 20, 6:00 pm)
Average80 °F51%29.79 "Hg
* Reported Jan 8 4:00 pm — Jan 23 4:00 pm, Mudgee, Weather by CustomWeather, © 2017

Note: Actual official high and low records may vary slightly from our data, if they occured in-between our weather recording intervals... More about our weather records

Advertising

Mudgee Weather History for the Previous 24 Hours

Scroll right to see more
 ConditionsComfort  
Time TempWeatherWind HumidityBarometerVisibility
4:00 pm
Mon, Jan 23
93 °FHot.9 mph34%29.80 "HgN/A
3:00 pm94 °FPassing clouds.10 mph34%29.82 "HgN/A
1:00 pm90 °FHot.9 mph40%29.87 "HgN/A
12:00 pm85 °FScattered clouds.7 mph50%29.90 "HgN/A
10:00 am79 °FWarm.7 mph58%29.93 "HgN/A
9:00 am75 °FMild.3 mph63%29.94 "HgN/A
7:00 am66 °FMild.3 mph82%29.92 "HgN/A
6:00 am64 °FPassing clouds.2 mph88%29.91 "HgN/A
4:00 am65 °FMild.No wind79%29.88 "HgN/A
3:00 am67 °FMild.5 mph72%29.88 "HgN/A
1:00 am71 °FMild.6 mph59%29.90 "HgN/A
12:00 am76 °FMild.5 mph48%29.91 "HgN/A
10:00 pm
Sun, Jan 22
78 °FPleasantly warm.12 mph39%29.90 "HgN/A
9:00 pm81 °FPleasantly warm.12 mph35%29.88 "HgN/A
7:00 pm87 °FPleasantly warm.9 mph31%29.86 "HgN/A
6:00 pm88 °FPleasantly warm.10 mph31%29.85 "HgN/A
Weather by CustomWeather, © 2017

See weather overviewHow to use our weather pages